[[{"header":{"parameterUnit":"m.s-1","parameterCategory":2,"la1":30.2991,"la2":30.254,"lo1":-89.0895,"lo2":-89.0444,"dy":0.0017,"dx":0.0017,"nx":28,"ny":28,"refTime":"2023-10-18T03:00:00:Z","depth":"0","parameterNumber":2,"parameterNumberName":"U-component_of_CURRENTS"},"data":[0,0,0,0,0,0,0,0,0,0,0,0,0,0,0,0,0,0,0,0,0,0,0,0,0,0,0,0,0,0,0,0,0,0,0,0,0,0,0,0,0,0,0,0,0,0,0,0,0,0,0,0,0,0,0,0,0,0,0.3006,0.3004,0,0.2862,0.2861,0.2859,0.276,0.2759,0.2759,0.2758,0.2705,0.2704,0.2704,0,0,0,0,0,0,0,0,0,0,0,0,0,0.3163,0.316,0.3006,0.3004,0.3002,0.2863,0.2861,0.2859,0.276,0.2759,0.2758,0.2758,0.2705,0.2705,0.2704,0,0,0,0,0,0,0,0,0,0,0,0,0,0.3064,0.316,0.3006,0.2937,0.2929,0.2863,0.286,0.2858,0.276,0.2759,0.2758,0.2757,0.2706,0.2705,0.2703,0.2717,0,0,0.27,0.2699,0,0,0,0,0,0,0,0,0.307,0.3058,0.2949,0.2942,0.2933,0.2829,0.2896,0.2815,0.276,0.2824,0.2758,0.2757,0.2756,0.2751,0.2724,0.2714,0.2712,0.27,0.2699,0.2699,0.2698,0,0,0,0,0,0,0,0.3077,0.3064,0.2948,0.2947,0.2937,0.2902,0.2887,0.288,0.2799,0.2818,0.2811,0.2796,0.2752,0.2725,0.2722,0.2711,0.27,0.2699,0.2698,0.2698,0.2734,0.2736,0,0,0,0,0,0,0.3098,0.307,0.2953,0.2944,0.3001,0.29,0.2884,0.2863,0.2796,0.2785,0.2797,0.2792,0.2727,0.2723,0.272,0.2807,0.2699,0.2698,0.2697,0.2733,0.2735,0.2736,0,0,0,0,0,0,0.3102,0.3089,0.2959,0.3005,0.2986,0.2899,0.2876,0.286,0.2841,0.278,0.2769,0.2796,0.2726,0.2722,0.2736,0.2802,0.2697,0.2696,0.2731,0.2733,0.2736,0.2934,0,0,0,0,0,0,0.3107,0.3091,0.31,0.3006,0.2984,0.2958,0.2876,0.2858,0.2834,0.2826,0.2776,0.2768,0.2725,0.2739,0.2735,0.2798,0.2695,0.2729,0.2732,0.2735,0.2925,0.2943,0.2958,0,0,0,0,0,0.3113,0.313,0.3101,0.3088,0.2993,0.296,0.2948,0.2881,0.2835,0.2854,0.2811,0.277,0.2755,0.274,0.2735,0.2799,0.2727,0.2731,0.2734,0.2918,0.2939,0.2958,0,0,0,0,0,0,0.3204,0.3118,0.3085,0.3075,0.304,0.2945,0.2953,0.2898,0.2873,0.2867,0.2798,0.279,0.2832,0.2779,0.2763,0.2813,0.2732,0.2736,0.2873,0.2893,0.2909,0.2914,0.2694,0,0,0,0,0,0.3229,0.3216,0.314,0.3138,0.3127,0.3044,0.3024,0.2977,0.2932,0.2916,0.2878,0.2841,0.2842,0.2838,0.2826,0.2856,0.2832,0.2888,0.2904,0.2919,0.2917,0.2968,0.2991,0.2749,0.2749,0.2749,0,0,0.3259,0.3215,0.3205,0.3158,0.312,0.3113,0.303,0.3016,0.3016,0.2921,0.2931,0.291,0.2863,0.2902,0.2914,0.2868,0.2975,0.2924,0.2937,0.2926,0.2975,0.2999,0.302,0.2751,0.2751,0.275,0,0,0.331,0.3284,0.3287,0.3267,0.3226,0.3185,0.319,0.3119,0.3106,0.3109,0.3052,0.3073,0.3039,0.3038,0.3026,0.3123,0.3069,0.3109,0.3193,0.3246,0.3267,0.3285,0.3294,0.3312,0.3108,0.3109,0.3109,0,0.3346,0.3327,0.3292,0.3294,0.3275,0.3225,0.3224,0.3222,0.3166,0.316,0.3142,0.3118,0.311,0.3148,0.3189,0.3169,0.316,0.3133,0.3273,0.329,0.3305,0.331,0.3326,0.3119,0.3118,0.3117,0.3116,0,0.3388,0.3378,0.339,0.3367,0.3364,0.3361,0.3342,0.3354,0.3328,0.3298,0.3334,0.3327,0.3297,0.3323,0.3292,0.3388,0.3336,0.3304,0.3235,0.3343,0.3339,0.3353,0.3133,0.3129,0.3126,0.3124,0,0,0.3397,0.3412,0.3404,0.34,0.339,0.338,0.3426,0.3422,0.3428,0.344,0.3448,0.3504,0.3478,0.3464,0.3446,0.3506,0.3642,0.3459,0.3457,0.3487,0.3729,0.3551,0.3548,0.3639,0.3643,0.3645,0.3687,0,0.3416,0.3439,0.3436,0.345,0.345,0.3439,0.3475,0.3481,0.3487,0.3504,0.3532,0.3545,0.3539,0.3538,0.361,0.3625,0.3685,0.3631,0.3599,0.3597,0.3445,0.3561,0.3345,0.3351,0.37,0.3702,0.3704,0,0.3413,0.3428,0.3453,0.346,0.3459,0.3474,0.3488,0.3514,0.3553,0.3559,0.359,0.3589,0.3679,0.3659,0.3768,0.373,0.3749,0.3767,0.3768,0.3536,0.3445,0.3294,0.3362,0.3253,0.3724,0.3722,0.3721,0,0.3391,0.3413,0.3434,0.3437,0.3465,0.3474,0.3486,0.3517,0.3541,0.3589,0.3603,0.3677,0.371,0.3781,0.3823,0.3805,0.3926,0.3894,0.3749,0.3735,0.3506,0.3465,0.3475,0.3982,0.3982,0.3982,0.3982,0,0.3376,0.3382,0.3427,0.3432,0.3452,0.3466,0.349,0.3512,0.3555,0.3588,0.3626,0.3669,0.375,0.3811,0.3852,0.3836,0.395,0.3778,0.3747,0.3564,0.353,0.3381,0.3365,0.3983,0.3983,0.3983,0.3983,0,0.3349,0.3377,0.3397,0.3434,0.3441,0.3455,0.3489,0.3517,0.3548,0.3596,0.3616,0.3687,0.3746,0.3795,0.3893,0.3837,0.373,0.3824,0.3577,0.3513,0.321,0.3212,0.3077,0.3004,0.3653,0.3649,0.3645,0,0.3351,0.3361,0.3398,0.3416,0.3434,0.3457,0.3479,0.351,0.3541,0.3608,0.3637,0.3688,0.3735,0.3767,0.3663,0.3642,0.3602,0.3403,0.3326,0.3173,0.3156,0.3086,0.3034,0.3117,0.3109,0.3103,0.3098,0,0.3356,0.3369,0.3398,0.3433,0.3455,0.3471,0.35,0.3517,0.3561,0.3588,0.3632,0.3674,0.3626,0.3476,0.3383,0.3343,0.3193,0.3271,0.3205,0.2809,0.2645,0.2563,0.3096,0.3044,0.305,0.3054,0.3057,0.3059,0.337,0.3395,0.3435,0.3453,0.3478,0.3482,0.346,0.3489,0.3507,0.3469,0.3573,0.349,0.3306,0.3117,0.3062,0.2687,0.2807,0.2551,0.2591,0.2553,0.2397,0.2777,0.2623,0.2626,0.2629,0.2631,0.2633,0,0.3386,0.3419,0.3452,0.3467,0.3461,0.3468,0.347,0.3398,0.3366,0.3312,0.3293,0.2992,0.2788,0.2589,0.219,0.2036,0.1989,0.1972,0.1865,0.1872,0.2277,0.2164,0.1789,0.1789,0.1789,0.1789,0.179,0.179,0.3408,0.3438,0.3442,0.3432,0.3425,0.3328,0.3293,0.3184,0.3091,0.2808,0.2555,0.2471,0.225,0.1934,0.1629,0.1579,0.1515,0.1383,0.1501,0.1809,0.1867,0.1923,0.1813,0.1371,0.1371,0.0969,0.0966,0.0964]},{"header":{"parameterUnit":"m.s-1","parameterCategory":2,"la1":30.2991,"la2":30.254,"lo1":-89.0895,"lo2":-89.0444,"dy":0.0017,"dx":0.0017,"nx":28,"ny":28,"refTime":"2023-10-18T03:00:00:Z","depth":"0","parameterNumber":3,"parameterNumberName":"V-component_of_CURRENTS"},"data":[0,0,0,0,0,0,0,0,0,0,0,0,0,0,0,0,0,0,0,0,0,0,0,0,0,0,0,0,0,0,0,0,0,0,0,0,0,0,0,0,0,0,0,0,0,0,0,0,0,0,0,0,0,0,0,0,0,0,0.0082,0.0082,0,0.0105,0.0106,0.0106,0.0102,0.0102,0.0101,0.0101,0.007,0.007,0.0069,0,0,0,0,0,0,0,0,0,0,0,0,0,0.0047,0.0048,0.0082,0.0082,0.0082,0.0105,0.0106,0.0106,0.0102,0.0102,0.0101,0.01,0.007,0.007,0.0069,0,0,0,0,0,0,0,0,0,0,0,0,0,0.0068,0.0048,0.0082,0.0081,0.0082,0.0105,0.0106,0.0106,0.0103,0.0102,0.0101,0.01,0.007,0.007,0.0069,0.0085,0,0,0.0068,0.0068,0,0,0,0,0,0,0,0,0.0067,0.0069,0.0082,0.0082,0.0082,0.0098,0.0082,0.0096,0.0103,0.0097,0.0101,0.0099,0.0074,0.0073,0.0083,0.0084,0.0083,0.0068,0.0068,0.0068,0.0068,0,0,0,0,0,0,0,0.0065,0.0068,0.0094,0.0082,0.0082,0.0084,0.0086,0.0085,0.0091,0.0097,0.0097,0.0096,0.0073,0.0084,0.0082,0.0082,0.0068,0.0068,0.0068,0.0068,0.0102,0.0103,0,0,0,0,0,0,0.0058,0.0067,0.0093,0.0094,0.0069,0.0085,0.0088,0.0096,0.0092,0.009,0.0097,0.0096,0.0085,0.0083,0.0081,0.0107,0.0068,0.0068,0.0067,0.0101,0.0102,0.0103,0,0,0,0,0,0,0.0058,0.0061,0.0092,0.0079,0.0082,0.0087,0.0096,0.0096,0.0104,0.0092,0.0089,0.0102,0.0084,0.0082,0.0086,0.0105,0.0067,0.0067,0.01,0.0101,0.0103,0.0154,0,0,0,0,0,0,0.0057,0.0061,0.0067,0.0079,0.0083,0.0106,0.0096,0.0097,0.0104,0.0103,0.0096,0.0092,0.0083,0.0087,0.0085,0.0104,0.0067,0.0098,0.01,0.0102,0.0151,0.0157,0.0163,0,0,0,0,0,0.0056,0.006,0.0067,0.007,0.009,0.0106,0.011,0.011,0.0105,0.0113,0.0111,0.0092,0.0099,0.0087,0.0086,0.0105,0.0097,0.01,0.0102,0.0148,0.0156,0.0162,0,0,0,0,0,0,0.0042,0.006,0.0068,0.0077,0.0093,0.0105,0.011,0.0113,0.0121,0.0116,0.0105,0.0102,0.0115,0.0104,0.0091,0.0122,0.0096,0.0098,0.0131,0.0139,0.0144,0.0153,0.0066,0,0,0,0,0,0.0045,0.0053,0.0074,0.0079,0.0091,0.0104,0.011,0.0114,0.0119,0.0122,0.0121,0.0121,0.0127,0.0126,0.0128,0.0143,0.016,0.0155,0.0161,0.0166,0.0173,0.0237,0.025,0.0112,0.0112,0.0112,0,0,0.0037,0.0049,0.0052,0.0077,0.0091,0.0113,0.0106,0.0117,0.0135,0.0117,0.0139,0.0139,0.0136,0.0156,0.016,0.0147,0.0213,0.017,0.0174,0.0178,0.0241,0.0255,0.0267,0.0114,0.0113,0.0113,0,0,0.003,0.0045,0.0056,0.0077,0.0099,0.0112,0.0117,0.0139,0.0149,0.0172,0.0166,0.0184,0.0187,0.02,0.0202,0.0243,0.0242,0.0237,0.0274,0.0336,0.0348,0.0359,0.0391,0.0405,0.024,0.024,0.024,0,0.0024,0.0043,0.006,0.0084,0.01,0.0114,0.0136,0.0155,0.0174,0.0189,0.0181,0.022,0.0214,0.025,0.0264,0.0257,0.0283,0.0246,0.0345,0.0357,0.0367,0.0397,0.0411,0.0243,0.0243,0.0243,0.0242,0,0.0034,0.0054,0.0063,0.0102,0.0123,0.014,0.0172,0.0193,0.0206,0.0227,0.0268,0.0279,0.0301,0.0306,0.0295,0.0362,0.0352,0.0347,0.0329,0.0384,0.0412,0.0426,0.0247,0.0246,0.0245,0.0245,0,0,0.0017,0.006,0.0067,0.0092,0.0134,0.0154,0.0187,0.0227,0.026,0.0287,0.0338,0.0358,0.037,0.0375,0.0375,0.0427,0.0516,0.0419,0.0421,0.0453,0.0642,0.0574,0.0582,0.0535,0.0538,0.054,0.063,0,0.0025,0.0063,0.0084,0.0127,0.0156,0.0185,0.0221,0.0259,0.0294,0.0349,0.0377,0.0423,0.0395,0.0418,0.0465,0.0516,0.0556,0.0491,0.0581,0.0584,0.0519,0.0597,0.0577,0.0651,0.0643,0.0645,0.0647,0,0.0042,0.0063,0.01,0.0153,0.017,0.0197,0.0261,0.0296,0.0369,0.04,0.0449,0.0477,0.0551,0.0524,0.0635,0.0598,0.0618,0.0649,0.0653,0.0582,0.0542,0.0596,0.0676,0.0587,0.0668,0.0666,0.0665,0,0.0039,0.0083,0.0109,0.0128,0.0187,0.0209,0.0242,0.031,0.0367,0.0442,0.0503,0.0567,0.0636,0.0682,0.0729,0.0698,0.0856,0.0818,0.0767,0.0762,0.0758,0.0746,0.0765,0.089,0.0889,0.0889,0.0889,0,0.0053,0.0079,0.0108,0.013,0.018,0.0213,0.0284,0.0325,0.0412,0.0509,0.0533,0.0635,0.0687,0.0773,0.078,0.0827,0.0896,0.0792,0.0794,0.0771,0.076,0.0689,0.0649,0.0893,0.0892,0.0891,0.0891,0,0.0068,0.0078,0.0124,0.0169,0.0187,0.023,0.0324,0.0389,0.045,0.0583,0.0618,0.073,0.0844,0.0872,0.097,0.0905,0.0898,0.093,0.0878,0.0869,0.069,0.0653,0.0687,0.0655,0.0886,0.0885,0.0885,0,0.008,0.0101,0.016,0.02,0.0225,0.0287,0.0348,0.041,0.0495,0.0657,0.0741,0.0866,0.1,0.1084,0.1008,0.0997,0.0923,0.0901,0.082,0.0692,0.0656,0.0623,0.0592,0.0841,0.084,0.0839,0.0838,0,0.0122,0.0142,0.0188,0.0257,0.0317,0.039,0.0477,0.0546,0.0648,0.077,0.0954,0.1071,0.1133,0.1136,0.1054,0.1012,0.0821,0.0876,0.0794,0.0661,0.0587,0.0552,0.0742,0.083,0.0831,0.0832,0.0832,0.0833,0.0173,0.0213,0.027,0.0334,0.0405,0.0491,0.0568,0.068,0.0823,0.1034,0.1114,0.1322,0.1228,0.1138,0.1034,0.075,0.0782,0.0653,0.0635,0.0624,0.0548,0.0686,0.0732,0.0732,0.0732,0.0733,0.0733,0,0.0237,0.0276,0.0344,0.0428,0.0508,0.0527,0.066,0.0758,0.0941,0.1163,0.1346,0.1421,0.1293,0.1102,0.0728,0.0542,0.0484,0.045,0.0421,0.0412,0.0589,0.0535,0.0481,0.0481,0.0481,0.0482,0.0482,0.0482,0.0287,0.035,0.0366,0.049,0.0555,0.067,0.0748,0.0911,0.1082,0.1347,0.1499,0.1614,0.1428,0.0827,0.0435,0.0359,0.0253,0.0222,0.0186,0.0302,0.032,0.0337,0.0276,0.0168,0.0168,0.0014,0.0012,0.0011]}],[{"header":{"parameterUnit":"m.s-1","parameterCategory":2,"la1":30.2991,"la2":30.254,"lo1":-89.0895,"lo2":-89.0444,"dy":0.0017,"dx":0.0017,"nx":28,"ny":28,"refTime":"2023-10-18T03:00:00:Z","depth":"2","parameterNumber":2,"parameterNumberName":"U-component_of_CURRENTS"},"data":[0,0,0,0,0,0,0,0,0,0,0,0,0,0,0,0,0,0,0,0,0,0,0,0,0,0,0,0,0,0,0,0,0,0,0,0,0,0,0,0,0,0,0,0,0,0,0,0,0,0,0,0,0,0,0,0,0,0,0.1572,0.1573,0,0.158,0.158,0.158,0.1559,0.1559,0.1559,0.1559,0.1567,0.1567,0.1568,0,0,0,0,0,0,0,0,0,0,0,0,0,0.1552,0.1552,0.1572,0.1573,0.1573,0.158,0.158,0.158,0.1559,0.1559,0.1559,0.1559,0.1567,0.1567,0.1568,0,0,0,0,0,0,0,0,0,0,0,0,0,0.1556,0.1552,0.1572,0.1568,0.1568,0.158,0.158,0.158,0.156,0.1559,0.1559,0.1559,0.1567,0.1567,0.1568,0.1577,0,0,0.157,0.157,0,0,0,0,0,0,0,0,0.1556,0.1556,0.1568,0.1568,0.1568,0.1573,0.1576,0.158,0.156,0.1557,0.1559,0.1559,0.1572,0.1573,0.1568,0.1577,0.1578,0.157,0.157,0.157,0.157,0,0,0,0,0,0,0,0.1555,0.1556,0.157,0.1569,0.1569,0.157,0.157,0.1576,0.1563,0.1558,0.1557,0.1566,0.1572,0.1567,0.1568,0.1578,0.157,0.157,0.157,0.1571,0.1638,0.1639,0,0,0,0,0,0,0.1564,0.1555,0.157,0.1571,0.1567,0.1571,0.157,0.1568,0.1562,0.1563,0.1567,0.1565,0.1566,0.1567,0.1568,0.163,0.157,0.1571,0.1571,0.1636,0.1638,0.164,0,0,0,0,0,0,0.1563,0.1565,0.157,0.1568,0.1569,0.1572,0.1569,0.1568,0.1582,0.157,0.1569,0.1584,0.1566,0.1567,0.1587,0.1628,0.1571,0.1572,0.1635,0.1637,0.1639,0.1722,0,0,0,0,0,0,0.1562,0.1564,0.1554,0.1568,0.157,0.1567,0.157,0.1569,0.1589,0.1588,0.1585,0.1584,0.1566,0.1586,0.1588,0.1628,0.1572,0.1633,0.1636,0.1638,0.1717,0.1726,0.1734,0,0,0,0,0,0.1561,0.1556,0.1553,0.1555,0.156,0.1567,0.1567,0.1566,0.159,0.1581,0.1598,0.1585,0.1605,0.1588,0.1589,0.1631,0.1632,0.1635,0.1638,0.1713,0.1725,0.1734,0,0,0,0,0,0,0.1541,0.1554,0.1551,0.1549,0.1553,0.1565,0.1565,0.1583,0.1591,0.1598,0.16,0.1599,0.1625,0.162,0.1602,0.1657,0.1618,0.1621,0.1675,0.1685,0.1694,0.1674,0.1572,0,0,0,0,0,0.1534,0.1542,0.1544,0.1549,0.1547,0.1565,0.1571,0.1574,0.159,0.1594,0.1618,0.1633,0.1637,0.1655,0.1646,0.1688,0.1699,0.1716,0.1725,0.1732,0.1717,0.1806,0.1822,0.165,0.165,0.165,0,0,0.1538,0.1544,0.1551,0.1547,0.1553,0.1553,0.1566,0.1579,0.16,0.1595,0.1648,0.1655,0.1649,0.168,0.1695,0.1688,0.1785,0.1737,0.1743,0.1723,0.1811,0.1828,0.1843,0.1652,0.1652,0.1652,0,0,0.1555,0.1545,0.1552,0.1547,0.1554,0.1557,0.157,0.1599,0.1622,0.1662,0.1669,0.1702,0.1733,0.1739,0.1742,0.1797,0.1814,0.1814,0.1863,0.1951,0.1966,0.1979,0.201,0.2025,0.1838,0.1838,0.1838,0,0.1561,0.1555,0.1555,0.1552,0.156,0.1567,0.1575,0.1592,0.1638,0.1678,0.1682,0.1748,0.1752,0.1789,0.1814,0.1816,0.186,0.1827,0.1964,0.1977,0.199,0.2018,0.2034,0.1842,0.1842,0.1841,0.1841,0,0.1565,0.1562,0.1568,0.1566,0.1572,0.1577,0.1598,0.1638,0.1687,0.1716,0.1778,0.1789,0.1832,0.1853,0.1852,0.1945,0.1944,0.1954,0.1941,0.2012,0.2037,0.2052,0.1849,0.1847,0.1846,0.1845,0,0,0.1571,0.1574,0.157,0.1584,0.1578,0.1595,0.1637,0.1679,0.1745,0.1775,0.186,0.1876,0.1903,0.1907,0.1927,0.2008,0.2137,0.2038,0.204,0.2071,0.2319,0.2176,0.2178,0.2204,0.2208,0.221,0.23,0,0.1572,0.1583,0.158,0.1604,0.1611,0.1636,0.1684,0.1729,0.1789,0.1873,0.1886,0.1951,0.1917,0.1971,0.2035,0.2104,0.2183,0.211,0.2239,0.2241,0.2111,0.2193,0.1996,0.2048,0.2315,0.2317,0.2319,0,0.1549,0.1569,0.1594,0.1649,0.1657,0.1687,0.1786,0.1827,0.1914,0.1964,0.2008,0.2033,0.2096,0.2093,0.2209,0.2178,0.2255,0.2305,0.2311,0.2152,0.2127,0.202,0.2065,0.2344,0.2342,0.234,0.2338,0,0.1547,0.1572,0.1608,0.1615,0.1675,0.1734,0.1781,0.1872,0.1929,0.2038,0.2102,0.2143,0.2202,0.2276,0.2339,0.2318,0.2488,0.2468,0.2395,0.2385,0.2219,0.2187,0.2591,0.2591,0.2591,0.2591,0.2591,0,0.1531,0.1564,0.1624,0.1644,0.1718,0.1764,0.1863,0.1929,0.2022,0.2079,0.2152,0.2192,0.2275,0.2358,0.2393,0.2415,0.2527,0.2399,0.2409,0.2237,0.2208,0.2459,0.2442,0.2594,0.2593,0.2593,0.2592,0,0.1529,0.1554,0.1602,0.1684,0.1718,0.178,0.1885,0.1963,0.206,0.2143,0.2181,0.2273,0.2345,0.2412,0.2543,0.2483,0.2529,0.2533,0.2286,0.2261,0.2345,0.2332,0.242,0.2416,0.2413,0.241,0.2407,0,0.1536,0.1556,0.1627,0.1672,0.1722,0.1813,0.188,0.1967,0.2031,0.2153,0.2186,0.2302,0.2306,0.2399,0.237,0.2386,0.2497,0.2216,0.2108,0.2332,0.2334,0.2326,0.2318,0.1933,0.1927,0.1922,0.1918,0,0.1571,0.1592,0.1648,0.1696,0.1769,0.1825,0.1922,0.1947,0.2037,0.21,0.2139,0.2154,0.2207,0.2091,0.213,0.2105,0.217,0.2107,0.2479,0.1979,0.1873,0.1874,0.1883,0.1874,0.1878,0.1881,0.1884,0.1886,0.1624,0.1635,0.1683,0.1717,0.1797,0.182,0.1798,0.1876,0.1901,0.191,0.1992,0.1945,0.1933,0.1829,0.1776,0.1747,0.1888,0.1802,0.1819,0.1841,0.1741,0.1632,0.1567,0.1569,0.1572,0.1574,0.1575,0,0.1635,0.165,0.1697,0.1705,0.1733,0.18,0.1804,0.1744,0.1687,0.1734,0.1716,0.1537,0.1458,0.1482,0.1351,0.1316,0.1323,0.1264,0.1275,0.1319,0.1358,0.1235,0.0926,0.0924,0.0922,0.0921,0,0,0.1662,0.1658,0.162,0.1615,0.1651,0.1606,0.1567,0.148,0.1445,0.1354,0.1304,0.1387,0.1421,0.1168,0.1115,0.1005,0.1156,0.0953,0.1473,0.153,0.1567,0.1665,0.1523,0,0,0,0,0]},{"header":{"parameterUnit":"m.s-1","parameterCategory":2,"la1":30.2991,"la2":30.254,"lo1":-89.0895,"lo2":-89.0444,"dy":0.0017,"dx":0.0017,"nx":28,"ny":28,"refTime":"2023-10-18T03:00:00:Z","depth":"2","parameterNumber":3,"parameterNumberName":"V-component_of_CURRENTS"},"data":[0,0,0,0,0,0,0,0,0,0,0,0,0,0,0,0,0,0,0,0,0,0,0,0,0,0,0,0,0,0,0,0,0,0,0,0,0,0,0,0,0,0,0,0,0,0,0,0,0,0,0,0,0,0,0,0,0,0,0.0087,0.0086,0,0.0078,0.0078,0.0078,0.0083,0.0083,0.0083,0.0083,0.0057,0.0056,0.0055,0,0,0,0,0,0,0,0,0,0,0,0,0,0.007,0.0071,0.0087,0.0086,0.0086,0.0078,0.0078,0.0078,0.0082,0.0083,0.0083,0.0083,0.0057,0.0056,0.0055,0,0,0,0,0,0,0,0,0,0,0,0,0,0.0073,0.0071,0.0087,0.0086,0.0086,0.0078,0.0078,0.0078,0.0082,0.0083,0.0083,0.0083,0.0057,0.0056,0.0055,0.0046,0,0,0.0052,0.0051,0,0,0,0,0,0,0,0,0.0073,0.0074,0.0086,0.0086,0.0086,0.008,0.0063,0.0066,0.0082,0.0086,0.0083,0.0083,0.0062,0.006,0.0061,0.0045,0.0044,0.0051,0.0051,0.005,0.005,0,0,0,0,0,0,0,0.0073,0.0074,0.0085,0.0086,0.0086,0.0073,0.0075,0.0063,0.0074,0.0085,0.0085,0.0081,0.0062,0.0062,0.006,0.0043,0.0051,0.005,0.005,0.0049,0.0037,0.0037,0,0,0,0,0,0,0.0072,0.0074,0.0085,0.0085,0.0077,0.0074,0.0075,0.0083,0.0075,0.0073,0.0081,0.0082,0.0064,0.0062,0.0059,0.0067,0.005,0.0049,0.0049,0.0037,0.0037,0.0037,0,0,0,0,0,0,0.0072,0.0074,0.0086,0.0077,0.0077,0.0074,0.0083,0.0083,0.0082,0.0071,0.007,0.008,0.0064,0.0061,0.0053,0.0065,0.0049,0.0048,0.0036,0.0037,0.0037,0.0069,0,0,0,0,0,0,0.0072,0.0074,0.008,0.0077,0.0078,0.0091,0.0083,0.0083,0.0079,0.0079,0.007,0.0068,0.0064,0.0055,0.0052,0.0063,0.0047,0.0036,0.0036,0.0037,0.0068,0.0071,0.0073,0,0,0,0,0,0.0072,0.0082,0.0081,0.0082,0.0087,0.0092,0.0092,0.009,0.0079,0.0087,0.0075,0.0068,0.0058,0.0054,0.0051,0.0062,0.0035,0.0036,0.0037,0.0066,0.007,0.0073,0,0,0,0,0,0,0.008,0.0083,0.0082,0.0094,0.0096,0.0092,0.0099,0.0088,0.0085,0.0081,0.0068,0.0065,0.0066,0.0056,0.0052,0.006,0.0047,0.0047,0.0071,0.0074,0.0077,0.0104,0.0046,0,0,0,0,0,0.0083,0.0089,0.0093,0.0099,0.0107,0.01,0.0099,0.0095,0.009,0.0089,0.0079,0.0069,0.0066,0.0063,0.0059,0.0057,0.0059,0.0063,0.0066,0.0069,0.0089,0.01,0.0106,0.004,0.004,0.004,0,0,0.0086,0.0087,0.009,0.01,0.0105,0.0124,0.0102,0.0105,0.0113,0.0085,0.0092,0.0077,0.0067,0.0073,0.0072,0.0065,0.0085,0.007,0.0072,0.0091,0.0101,0.0108,0.0114,0.0041,0.004,0.004,0,0,0.0097,0.0102,0.0117,0.0128,0.0133,0.0132,0.0133,0.0131,0.0128,0.0126,0.0111,0.0105,0.0093,0.0096,0.0094,0.0108,0.0099,0.01,0.0138,0.0147,0.0153,0.0159,0.0157,0.0162,0.0102,0.0102,0.0102,0,0.0103,0.0123,0.0121,0.0146,0.0158,0.014,0.0166,0.0163,0.0152,0.0157,0.0135,0.0131,0.0111,0.0131,0.0134,0.0116,0.0117,0.0124,0.0152,0.0158,0.0163,0.016,0.0165,0.0104,0.0104,0.0103,0.0103,0,0.0137,0.0153,0.0166,0.0195,0.0208,0.0223,0.0226,0.0231,0.0214,0.0209,0.0214,0.0188,0.0193,0.0176,0.0157,0.0183,0.0169,0.0154,0.0146,0.0171,0.0167,0.0172,0.0106,0.0106,0.0105,0.0105,0,0,0.0156,0.0184,0.0193,0.0214,0.0235,0.0252,0.0273,0.0292,0.0321,0.029,0.0325,0.0291,0.0275,0.0272,0.0244,0.0243,0.0258,0.0214,0.0214,0.0218,0.0275,0.0228,0.0228,0.0247,0.0248,0.0249,0.0254,0,0.0187,0.0235,0.0242,0.0291,0.0319,0.0324,0.0356,0.0368,0.0369,0.04,0.0365,0.0386,0.0313,0.0323,0.0306,0.0279,0.0274,0.0258,0.0247,0.0247,0.0206,0.0234,0.0236,0.0238,0.0258,0.0259,0.026,0,0.0231,0.0252,0.03,0.0348,0.0366,0.0391,0.045,0.0475,0.0506,0.0512,0.0514,0.05,0.0492,0.0433,0.039,0.0382,0.0337,0.0304,0.0303,0.0258,0.0209,0.0218,0.0246,0.0268,0.0267,0.0266,0.0266,0,0.0253,0.0302,0.0336,0.0354,0.0403,0.0428,0.0458,0.0502,0.0552,0.0591,0.0645,0.061,0.0623,0.0556,0.0467,0.044,0.0426,0.038,0.0295,0.029,0.0292,0.0285,0.0368,0.0368,0.0368,0.0368,0.0368,0,0.0288,0.0319,0.0347,0.037,0.0435,0.0456,0.0535,0.057,0.0641,0.0729,0.0704,0.0765,0.0658,0.0632,0.0524,0.0424,0.0467,0.0317,0.0297,0.0299,0.0294,0.032,0.0314,0.0368,0.0368,0.0368,0.0368,0,0.0308,0.0322,0.0374,0.0425,0.0444,0.0495,0.0592,0.0665,0.0721,0.0842,0.0871,0.0892,0.0844,0.0731,0.0633,0.0513,0.0417,0.0374,0.0375,0.0353,0.0258,0.0254,0.0279,0.0277,0.0276,0.0275,0.0274,0,0.0321,0.0342,0.0418,0.0463,0.0483,0.0554,0.0624,0.0695,0.0788,0.0922,0.1,0.0997,0.0989,0.0815,0.062,0.0436,0.0419,0.0325,0.0263,0.0276,0.0253,0.0251,0.0249,0.0276,0.0275,0.0274,0.0274,0,0.0347,0.0374,0.0428,0.0522,0.0592,0.0683,0.0783,0.0872,0.0984,0.107,0.1176,0.1172,0.1018,0.0819,0.0572,0.0445,0.0344,0.0303,0.0352,0.0285,0.027,0.0248,0.0247,0.0268,0.0269,0.0269,0.0269,0.027,0.0379,0.044,0.0519,0.0605,0.0689,0.0811,0.09,0.1011,0.1141,0.1268,0.1264,0.1223,0.104,0.0677,0.0492,0.029,0.0294,0.0209,0.0213,0.0217,0.0203,0.0185,0.0165,0.0165,0.0165,0.0165,0.0165,0,0.0436,0.0506,0.0598,0.0719,0.0813,0.0841,0.1013,0.109,0.1225,0.1278,0.1305,0.1083,0.0883,0.0669,0.0362,0.0185,0.0179,0.0126,0.0165,0.0172,0.0177,0.0163,0.0113,0.0113,0.0112,0.0111,0,0,0.0479,0.0583,0.0635,0.0793,0.0869,0.0995,0.1089,0.1184,0.1239,0.1252,0.1193,0.1139,0.0896,0.0663,0.0446,0.0278,0.0259,0.0237,0.0296,0.0374,0.0382,0.0241,0.0228,0,0,0,0,0]}],[{"header":{"parameterUnit":"m.s-1","parameterCategory":2,"la1":30.2991,"la2":30.254,"lo1":-89.0895,"lo2":-89.0444,"dy":0.0017,"dx":0.0017,"nx":28,"ny":28,"refTime":"2023-10-18T03:00:00:Z","depth":"4","parameterNumber":2,"parameterNumberName":"U-component_of_CURRENTS"},"data":[0,0,0,0,0,0,0,0,0,0,0,0,0,0,0,0,0,0,0,0,0,0,0,0,0,0,0,0,0,0,0,0,0,0,0,0,0,0,0,0,0,0,0,0,0,0,0,0,0,0,0,0,0,0,0,0,0,0,0.0607,0.0607,0,0.0667,0.0667,0.0668,0.0698,0.0698,0.0699,0.0699,0.0761,0.0763,0.0764,0,0,0,0,0,0,0,0,0,0,0,0,0,0.0548,0.0549,0.0606,0.0608,0.0609,0.0667,0.0667,0.0668,0.0698,0.0698,0.0699,0.0699,0.0761,0.0762,0.0764,0,0,0,0,0,0,0,0,0,0,0,0,0,0.0583,0.0549,0.0606,0.0634,0.0637,0.0667,0.0667,0.0668,0.0698,0.0698,0.0699,0.07,0.076,0.0762,0.0764,0.0764,0,0,0.077,0.0771,0,0,0,0,0,0,0,0,0.0581,0.0585,0.0629,0.0632,0.0636,0.0679,0.067,0.0701,0.0698,0.067,0.0699,0.07,0.0736,0.074,0.0744,0.0767,0.077,0.077,0.0771,0.0772,0.0773,0,0,0,0,0,0,0,0.0579,0.0583,0.0626,0.063,0.0634,0.0654,0.0659,0.0676,0.0696,0.0673,0.0676,0.0689,0.0738,0.0742,0.0746,0.077,0.077,0.0772,0.0773,0.0774,0.0842,0.0843,0,0,0,0,0,0,0.0578,0.058,0.0624,0.0628,0.0614,0.0655,0.066,0.0661,0.0696,0.0703,0.0689,0.0691,0.0739,0.0744,0.0748,0.0798,0.0772,0.0774,0.0775,0.0842,0.0842,0.0843,0,0,0,0,0,0,0.0576,0.058,0.0622,0.061,0.0617,0.0656,0.0656,0.0662,0.0686,0.0709,0.0715,0.0709,0.0739,0.0746,0.0776,0.0799,0.0775,0.0777,0.0841,0.0842,0.0843,0.0867,0,0,0,0,0,0,0.0574,0.0579,0.0586,0.0609,0.0618,0.0633,0.0656,0.0663,0.0694,0.0698,0.0728,0.0734,0.074,0.0773,0.0778,0.0801,0.0778,0.084,0.0841,0.0842,0.0866,0.0869,0.0872,0,0,0,0,0,0.0571,0.0569,0.0585,0.0592,0.0623,0.0633,0.0638,0.0665,0.0695,0.0692,0.0727,0.0734,0.0785,0.0775,0.0781,0.0805,0.0839,0.0841,0.0842,0.0864,0.0868,0.0872,0,0,0,0,0,0,0.0539,0.0574,0.0591,0.0599,0.0615,0.0639,0.0652,0.0676,0.0701,0.0716,0.0741,0.0748,0.0785,0.0788,0.0777,0.0828,0.0814,0.0816,0.0829,0.0833,0.0836,0.0845,0.078,0,0,0,0,0,0.0538,0.0552,0.0579,0.0585,0.0597,0.0631,0.0646,0.0662,0.0688,0.0702,0.0731,0.0763,0.0792,0.0807,0.0826,0.0851,0.0865,0.087,0.0873,0.0876,0.0887,0.093,0.0938,0.0848,0.0848,0.0848,0,0,0.0529,0.0551,0.0559,0.0581,0.0603,0.0617,0.064,0.066,0.0678,0.0704,0.0746,0.0777,0.0802,0.0832,0.0849,0.084,0.0907,0.0878,0.088,0.089,0.0932,0.0941,0.0949,0.0849,0.0849,0.0849,0,0,0.0514,0.0537,0.0545,0.0562,0.0596,0.0614,0.0624,0.0659,0.0681,0.0717,0.0751,0.0799,0.0832,0.0862,0.0881,0.0913,0.0924,0.0917,0.0941,0.0982,0.099,0.0997,0.1017,0.1026,0.0916,0.0916,0.0916,0,0.0508,0.0518,0.0546,0.056,0.0581,0.0616,0.0628,0.0649,0.0692,0.0722,0.073,0.0826,0.085,0.0907,0.0922,0.0923,0.0939,0.0925,0.0987,0.0994,0.1002,0.102,0.1029,0.0917,0.0917,0.0917,0.0917,0,0.0498,0.0514,0.052,0.0554,0.0574,0.0586,0.0624,0.0652,0.0695,0.0731,0.0802,0.0843,0.0906,0.0919,0.0934,0.1,0.0992,0.0988,0.0978,0.1012,0.1029,0.1039,0.0919,0.0919,0.0918,0.0918,0,0,0.0471,0.0507,0.0513,0.0529,0.0575,0.0586,0.0625,0.0669,0.0713,0.0764,0.0828,0.0894,0.0942,0.0967,0.0998,0.1035,0.11,0.1037,0.1038,0.1058,0.118,0.1084,0.1085,0.1108,0.111,0.1112,0.1168,0,0.046,0.0475,0.0503,0.0526,0.0539,0.0587,0.0623,0.0674,0.0727,0.0793,0.0861,0.0932,0.0951,0.0998,0.1041,0.1099,0.1128,0.1085,0.1143,0.1145,0.1057,0.1094,0.1119,0.1175,0.1178,0.1179,0.118,0,0.0447,0.0462,0.0478,0.0523,0.0536,0.0561,0.0636,0.0673,0.0769,0.082,0.0906,0.0962,0.106,0.1054,0.1167,0.1141,0.1165,0.119,0.1193,0.1104,0.1067,0.1137,0.1197,0.1196,0.1195,0.1194,0.1193,0,0.0409,0.0446,0.0459,0.0474,0.0529,0.056,0.0602,0.0691,0.0748,0.0852,0.0914,0.1016,0.1098,0.1148,0.1218,0.1203,0.1315,0.1296,0.1223,0.1216,0.1275,0.1266,0.1352,0.1352,0.1352,0.1351,0.1351,0,0.0379,0.0389,0.0447,0.0448,0.0489,0.0546,0.0613,0.0665,0.0778,0.0856,0.0939,0.1013,0.113,0.1206,0.1236,0.1266,0.1334,0.1237,0.123,0.1281,0.1273,0.1281,0.1272,0.1354,0.1353,0.1353,0.1352,0,0.0325,0.0358,0.0375,0.0438,0.0466,0.0501,0.0618,0.0674,0.0778,0.0882,0.0926,0.1056,0.1154,0.1232,0.1328,0.1293,0.1321,0.1302,0.1353,0.1346,0.1185,0.1177,0.1229,0.1226,0.1224,0.1222,0.122,0,0.0291,0.0294,0.0358,0.0386,0.0415,0.0489,0.0548,0.0664,0.0732,0.0894,0.0936,0.1071,0.1144,0.1209,0.1278,0.1316,0.1296,0.1282,0.1231,0.1188,0.1176,0.1172,0.1167,0.1216,0.1216,0.1215,0.1214,0,0.0235,0.0265,0.0288,0.0341,0.0398,0.0453,0.0542,0.0593,0.0735,0.0841,0.0941,0.0999,0.11,0.1169,0.1211,0.1227,0.1279,0.1257,0.1261,0.1213,0.1173,0.1163,0.1161,0.1206,0.1207,0.1208,0.1209,0,0.021,0.0219,0.0264,0.031,0.036,0.0396,0.0453,0.0551,0.0639,0.0823,0.0852,0.0982,0.11,0.1122,0.1156,0.1174,0.1151,0.1091,0.1104,0.1113,0.1047,0.0978,0.0954,0,0,0,0,0,0.0205,0.0215,0.0237,0.028,0.0314,0.0348,0.0443,0.0512,0.0654,0.0706,0.0787,0.0873,0.0949,0.1007,0.1005,0.108,0.1135,0.1066,0.1067,0.1161,0.117,0.1102,0,0,0,0,0,0,0.0202,0.0226,0.0228,0.0239,0.0258,0.0301,0.0353,0.0447,0.049,0.0636,0.0694,0.0795,0.0891,0.0955,0.0985,0.1001,0.0973,0.1149,0.1145,0.1156,0.1164,0.1172,0.1105,0,0,0,0,0]},{"header":{"parameterUnit":"m.s-1","parameterCategory":2,"la1":30.2991,"la2":30.254,"lo1":-89.0895,"lo2":-89.0444,"dy":0.0017,"dx":0.0017,"nx":28,"ny":28,"refTime":"2023-10-18T03:00:00:Z","depth":"4","parameterNumber":3,"parameterNumberName":"V-component_of_CURRENTS"},"data":[0,0,0,0,0,0,0,0,0,0,0,0,0,0,0,0,0,0,0,0,0,0,0,0,0,0,0,0,0,0,0,0,0,0,0,0,0,0,0,0,0,0,0,0,0,0,0,0,0,0,0,0,0,0,0,0,0,0,0.0172,0.0172,0,0.0163,0.0163,0.0163,0.017,0.017,0.017,0.017,0.0158,0.0157,0.0157,0,0,0,0,0,0,0,0,0,0,0,0,0,0.016,0.0161,0.0172,0.0172,0.0171,0.0163,0.0163,0.0163,0.017,0.017,0.017,0.017,0.0158,0.0157,0.0157,0,0,0,0,0,0,0,0,0,0,0,0,0,0.0162,0.0161,0.0172,0.0172,0.0172,0.0163,0.0163,0.0163,0.017,0.017,0.017,0.017,0.0158,0.0157,0.0157,0.0149,0,0,0.0155,0.0154,0,0,0,0,0,0,0,0,0.0162,0.0162,0.0173,0.0172,0.0172,0.0166,0.0154,0.0158,0.017,0.0173,0.017,0.0171,0.0159,0.0158,0.0159,0.0148,0.0148,0.0154,0.0154,0.0154,0.0154,0,0,0,0,0,0,0,0.0162,0.0163,0.017,0.0172,0.0172,0.0161,0.0162,0.0155,0.0166,0.0173,0.0173,0.0168,0.0159,0.0159,0.0158,0.0148,0.0154,0.0154,0.0153,0.0153,0.0131,0.0131,0,0,0,0,0,0,0.016,0.0163,0.0171,0.017,0.0165,0.0161,0.0162,0.0169,0.0167,0.0166,0.0168,0.0169,0.016,0.0159,0.0158,0.0161,0.0154,0.0153,0.0153,0.0131,0.0131,0.0131,0,0,0,0,0,0,0.016,0.0162,0.0171,0.0164,0.0164,0.0161,0.0169,0.0169,0.0172,0.0163,0.0162,0.0171,0.0161,0.0159,0.0153,0.016,0.0153,0.0152,0.0131,0.0131,0.0131,0.0159,0,0,0,0,0,0,0.016,0.0162,0.0168,0.0164,0.0164,0.0172,0.0169,0.0169,0.0168,0.0169,0.0165,0.0164,0.0161,0.0154,0.0153,0.0159,0.0152,0.0132,0.0131,0.0131,0.0158,0.016,0.0161,0,0,0,0,0,0.016,0.0168,0.0169,0.017,0.0173,0.0172,0.0172,0.017,0.0168,0.0173,0.0166,0.0164,0.0151,0.0154,0.0152,0.0158,0.0132,0.0131,0.0131,0.0158,0.0159,0.0161,0,0,0,0,0,0,0.017,0.0169,0.017,0.0179,0.0178,0.0172,0.0176,0.0171,0.017,0.017,0.0162,0.0161,0.0157,0.015,0.0153,0.0149,0.0141,0.014,0.0161,0.0163,0.0164,0.0176,0.0151,0,0,0,0,0,0.0173,0.0177,0.0176,0.0182,0.0185,0.018,0.0179,0.0177,0.0173,0.0173,0.0168,0.016,0.0153,0.0153,0.0145,0.0143,0.0124,0.0144,0.0146,0.0147,0.0154,0.0124,0.0123,0.0129,0.0129,0.0129,0,0,0.0179,0.0177,0.018,0.0183,0.0185,0.0194,0.0182,0.0183,0.0188,0.0171,0.0178,0.0164,0.0152,0.0152,0.015,0.0148,0.0134,0.0147,0.0148,0.0154,0.0123,0.0123,0.0122,0.0129,0.0129,0.0129,0,0,0.0188,0.0192,0.0201,0.0204,0.0203,0.0201,0.0202,0.0199,0.0199,0.0197,0.0185,0.0175,0.0167,0.0162,0.0158,0.0159,0.0139,0.0155,0.0176,0.0146,0.0146,0.0145,0.0116,0.0113,0.0159,0.0159,0.0159,0,0.0195,0.021,0.0202,0.0214,0.0223,0.0207,0.0225,0.0219,0.0212,0.0214,0.0203,0.0186,0.0174,0.0174,0.0175,0.0164,0.0142,0.0174,0.0149,0.0148,0.0147,0.0117,0.0113,0.016,0.016,0.016,0.016,0,0.0214,0.0229,0.0236,0.0248,0.0254,0.0266,0.0262,0.0263,0.0255,0.0247,0.024,0.0217,0.021,0.02,0.0189,0.0178,0.0163,0.0152,0.0148,0.0148,0.0116,0.0111,0.0162,0.0162,0.0161,0.0161,0,0,0.0229,0.0248,0.0254,0.0272,0.0279,0.0288,0.0297,0.0306,0.0311,0.0291,0.0296,0.0275,0.0256,0.0249,0.0227,0.0201,0.0168,0.0176,0.0174,0.0152,0.01,0.0102,0.0096,0.015,0.015,0.0149,0.008,0,0.0253,0.0288,0.029,0.0326,0.0348,0.0345,0.0357,0.0357,0.0344,0.0338,0.0309,0.03,0.0275,0.0268,0.0239,0.0188,0.0157,0.0188,0.0098,0.0096,0.0102,0.0092,0.0147,0.0076,0.0075,0.0074,0.0073,0,0.028,0.03,0.0345,0.0375,0.0387,0.0404,0.0427,0.0432,0.0414,0.0404,0.0385,0.0351,0.032,0.029,0.0209,0.0229,0.0169,0.0122,0.0118,0.011,0.0089,0.0075,0.0064,0.0065,0.0065,0.0066,0.0067,0,0.0305,0.0341,0.0383,0.0396,0.0423,0.0447,0.046,0.0457,0.0467,0.0443,0.0436,0.0391,0.0368,0.0292,0.0201,0.0201,0.0098,0.0086,0.0031,0.003,0.0037,0.0039,0.002,0.002,0.0021,0.0021,0.0021,0,0.0335,0.0367,0.0401,0.0426,0.0468,0.048,0.0518,0.0515,0.0519,0.0525,0.0473,0.0456,0.0365,0.0294,0.0207,0.0108,0.0104,0.0034,0.0013,0.0049,0.0053,0.0033,0.0035,0.0018,0.0019,0.0019,0.002,0,0.0354,0.038,0.0424,0.0468,0.0482,0.0514,0.0559,0.0581,0.0575,0.0578,0.0573,0.0509,0.0422,0.0319,0.0193,0.0125,0.0023,-0.0015,0.0032,0.0015,-0.0028,-0.0024,-0.0078,-0.0079,-0.0079,-0.008,-0.008,0,0.0366,0.0393,0.0452,0.0477,0.05,0.0549,0.0582,0.0608,0.0627,0.0605,0.0603,0.0529,0.0471,0.0301,0.019,0.0033,0.0008,-0.0049,-0.0038,-0.0023,-0.0038,-0.0033,-0.0028,-0.0081,-0.0081,-0.0081,-0.0081,0,0.0377,0.0404,0.0437,0.0491,0.0537,0.0589,0.0635,0.0655,0.0675,0.0673,0.0628,0.0535,0.0437,0.0308,0.0189,0.0071,-0.0012,-0.0054,-0.0054,-0.0044,-0.0026,-0.004,-0.0034,-0.0082,-0.0082,-0.0082,-0.0082,0,0.0375,0.0399,0.0445,0.0491,0.0547,0.0602,0.0635,0.0662,0.0686,0.0667,0.0652,0.054,0.0488,0.0326,0.021,0.0105,0.0077,0.0034,0.0029,0.0029,0.0083,0.0122,0.0094,0,0,0,0,0,0.0368,0.0398,0.0438,0.0497,0.0557,0.0597,0.0652,0.0683,0.0704,0.0682,0.0672,0.0579,0.0415,0.0341,0.0238,0.0192,0.005,0.0066,-0.0004,-0.009,-0.0089,-0.0044,0,0,0,0,0,0,0.036,0.0402,0.043,0.0491,0.0537,0.061,0.0651,0.0673,0.0663,0.0663,0.0585,0.0549,0.0396,0.0481,0.0237,0.0204,0.0143,-0.0005,-0.0007,-0.0091,-0.009,-0.0088,-0.0042,0,0,0,0,0]}]]